1998-067PW

Last updated on Sun Feb 03 2019 00:02:04 GMT+0000 (Coordinated Universal Time)

1 44030U 98067PW 19032.79793501 .00021106 00000-0 32913-3 0 9998 2 44030 51.6422 314.5459 0005180 10.5837 349.4343 15.53787312 239

Satellite not in orbit

1998-067PW